CZ-6A DEB

Satellite information

Favourite Embed

Satellite Type and Status

DEBRISIN ORBIT

Key statistics

Satellite CZ-6A DEB at a glance.

Uptime

1024

Days in orbit

Revolutions

≈ 14.5

Per day

Orbit

SSO

Sun Synchronous Orbit

Inclination

98.6

Latest

Satellite identification and parameters

Extended collection of information and parameters for CZ-6A DEB.

Object identification

Identified? True

Debris? True

Object name: CZ-6A DEB

International designator: 2022-151WE

Object number (NORAD): 55213

Object ID (CCSDS): 55213

Country: PEOPLES REPUBLIC OF CHINA (PRC)

Current information (Y/N): Y

RCS size: SMALL

Orbital parameters

Period: 99.144 minutes

Inclination: 98.6449 deg

SMA: 7095.836 km

Apoapsis: 787.349 km

Periapsis: 648.053 km

RAAN: 282.1682 deg

Eccentricy: 0.00981532

Argument of periapsis: 124.608 deg

Mean anomaly: 236.4421 deg

Mean motion: 14.52437449 rev/day

Mean motion (dot): 0.00010129 rev/day2

B* drag term: 0.002340892 1/REarth

Two-line elements (TLE)

Creation date: Aug. 31, 2025, 2:26 a.m.

Reference frame: TEME

Reference center: EARTH

Epoch: Aug. 30, 2025, 3:34 p.m. UTC

TLE line 0: 0 CZ-6A DEB

TLE line 1: 1 55213U 22151WE 25242.64888370 .00010129 00000-0 23409-2 0 9999

TLE line 2: 2 55213 98.6449 282.1682 0098153 124.6080 236.4421 14.52437449141881

Live tracking on map

Real-time ground track for satellite CZ-6A DEB.

In-orbit conjunctions

A list of the most updated potential collisions computed for object CZ-6A DEB.

Target Orbit TCA Probability of collision Miss distance Type
SOICAL (CONE) LEO 2025-06-14 23:46:24 0.0003839959 233.0 (m) PAYLOAD
CZ-6A DEB LEO 2025-01-09 15:19:29 0.0004492267 247.0 (m) DEBRIS

Associated space launch

Chinese satellite reported for atmospheric/ocean/environmental/spatial parameter research purposes, details TBD.

CZ-6A DEB was lifted into orbit during the mission ‘Long March 6A | Yunhai 3’, on board a Long March 6A space rocket.

The launch took place on Nov. 11, 2022, 10:52 p.m. from Launch Complex 9A.

For more information about the launch, click the button.

Launch to space Long March 6A | Yunhai 3
Long March 6A | Yunhai 3

Agency: N/A

Status: Launch Successful

Launch date: Nov. 11, 2022, 10:52 p.m. UTC

Rocket: Long March 6A

Launch pad: Launch Complex 9A

Location: Taiyuan Satellite Launch Center, People's Republic of China

...

Latest news about this satellite

There are no fresh news available about this satellite. Check back as we update our databases every day.


Newsletter sign-up

Weekly statistics, charts and insights to help you stay on top of the space industry.